| time (UTC) | temp F | wind direction | speed MPH | gust MPH | rain 1hr in | rain 24hr in | rain mn in | humidity % | barometer mb |
| 20260506062026 | 55 | 300 | 0.0 | 0.0 | 0.00 | 0.00 | 0.00 | 51 | 1007.0 |
| 20260506061533 | 55 | 239 | 0.0 | 0.0 | 0.00 | 0.00 | 0.00 | 50 | 1007.0 |
| 20260506061025 | 56 | 310 | 0.0 | 0.0 | 0.00 | 0.00 | 0.00 | 49 | 1006.8 |
| 20260506060524 | 55 | 313 | 0.0 | 0.0 | 0.00 | 0.00 | 0.00 | 50 | 1006.8 |
| 20260506051018 | 55 | 71 | 0.0 | 6.0 | 0.00 | 0.00 | 0.00 | 50 | 1005.8 |
| 20260506050517 | 56 | 272 | 0.0 | 5.0 | 0.00 | 0.00 | 0.00 | 50 | 1005.7 |
| 20260506045016 | 57 | 270 | 0.0 | 5.0 | 0.00 | 0.00 | 0.00 | 48 | 1005.6 |
| 20260506044521 | 57 | 256 | 0.0 | 5.0 | 0.00 | 0.00 | 0.00 | 48 | 1005.6 |
| 20260506044014 | 57 | 321 | 0.0 | 0.0 | 0.00 | 0.00 | 0.00 | 47 | 1005.3 |
| 20260506043517 | 57 | 323 | 0.0 | 0.0 | 0.00 | 0.00 | 0.00 | 47 | 1005.2 |
| 20260506043016 | 58 | 266 | 0.0 | 0.0 | 0.00 | 0.00 | 0.00 | 47 | 1005.1 |
| 20260506042513 | 58 | 327 | 0.0 | 0.0 | 0.00 | 0.00 | 0.00 | 46 | 1005.1 |
| 20260506042013 | 58 | 340 | 0.0 | 6.0 | 0.00 | 0.00 | 0.00 | 46 | 1005.0 |
| 20260506041512 | 58 | 287 | 0.0 | 7.0 | 0.00 | 0.00 | 0.00 | 46 | 1004.9 |
| 20260506041011 | 58 | 18 | 0.0 | 6.0 | 0.00 | 0.00 | 0.00 | 45 | 1004.9 |
| 20260506040510 | 59 | 304 | 0.0 | 2.0 | 0.00 | 0.00 | 0.00 | 45 | 1004.8 |
| 20260506040011 | 59 | 339 | 0.0 | 0.0 | 0.00 | 0.00 | 0.00 | 44 | 1004.6 |
| 20260506035510 | 59 | 293 | 0.0 | 0.0 | 0.00 | 0.00 | 0.00 | 44 | 1004.6 |
| 20260506035008 | 59 | 335 | 0.0 | 0.0 | 0.00 | 0.00 | 0.00 | 44 | 1004.5 |
| 20260506034508 | 60 | 244 | 0.0 | 4.0 | 0.00 | 0.00 | 0.00 | 43 | 1004.5 |
| 20260506034008 | 60 | 87 | 0.0 | 4.0 | 0.00 | 0.00 | 0.00 | 43 | 1004.3 |
| 20260506033506 | 60 | 38 | 0.0 | 2.0 | 0.00 | 0.00 | 0.00 | 42 | 1004.2 |
| 20260506033006 | 61 | 329 | 0.0 | 4.0 | 0.00 | 0.00 | 0.00 | 41 | 1004.1 |
| 20260506032505 | 61 | 339 | 0.0 | 4.0 | 0.00 | 0.00 | 0.00 | 41 | 1004.0 |
| 20260506032004 | 62 | 312 | 0.0 | 0.0 | 0.00 | 0.00 | 0.00 | 40 | 1003.9 |
| 20260506031510 | 63 | 290 | 0.0 | 1.0 | 0.00 | 0.00 | 0.00 | 39 | 1003.9 |
| 20260506031003 | 63 | 330 | 0.0 | 1.0 | 0.00 | 0.00 | 0.00 | 37 | 1003.9 |
| 20260506030504 | 65 | 20 | 0.0 | 1.0 | 0.00 | 0.00 | 0.00 | 36 | 1003.7 |
| 20260506030002 | 66 | 269 | 0.0 | 1.0 | 0.00 | 0.00 | 0.00 | 33 | 1003.7 |
| 20260506025503 | 66 | 338 | 0.0 | 1.0 | 0.00 | 0.00 | 0.00 | 32 | 1003.6 |
| 20260506025001 | 67 | 289 | 0.0 | 0.0 | 0.00 | 0.00 | 0.00 | 31 | 1003.6 |
| 20260506024600 | 67 | 292 | 0.0 | 5.0 | 0.00 | 0.00 | 0.00 | 31 | 1003.5 |
| 20260506024100 | 67 | 333 | 0.0 | 5.0 | 0.00 | 0.00 | 0.00 | 30 | 1003.4 |
| 20260506023559 | 67 | 23 | 0.0 | 1.0 | 0.00 | 0.00 | 0.00 | 30 | 1003.3 |
| 20260506023100 | 68 | 340 | 0.0 | 0.0 | 0.00 | 0.00 | 0.00 | 30 | 1003.2 |
| 20260506022559 | 68 | 296 | 0.0 | 0.0 | 0.00 | 0.00 | 0.00 | 31 | 1003.1 |
| 20260506022100 | 68 | 336 | 0.0 | 0.0 | 0.00 | 0.00 | 0.00 | 32 | 1003.1 |
| 20260506021614 | 69 | 341 | 0.0 | 0.0 | 0.00 | 0.00 | 0.00 | 30 | 1003.0 |
| 20260506021059 | 69 | 347 | 0.0 | 0.0 | 0.00 | 0.00 | 0.00 | 30 | 1002.9 |
| 20260506020559 | 69 | 313 | 0.0 | 0.0 | 0.00 | 0.00 | 0.00 | 30 | 1002.9 |
| 20260506020059 | 69 | 22 | 0.0 | 0.0 | 0.00 | 0.00 | 0.00 | 30 | 1002.9 |
| 20260506015559 | 69 | 327 | 0.0 | 0.0 | 0.00 | 0.00 | 0.00 | 31 | 1002.9 |
| 20260506015101 | 69 | 328 | 0.0 | 0.0 | 0.00 | 0.00 | 0.00 | 30 | 1002.8 |
| 20260506014603 | 70 | 9 | 0.0 | 0.0 | 0.00 | 0.00 | 0.00 | 30 | 1002.8 |
| 20260506014058 | 70 | 15 | 0.0 | 0.0 | 0.00 | 0.00 | 0.00 | 31 | 1002.8 |
| 20260506013600 | 71 | 12 | 0.0 | 0.0 | 0.00 | 0.00 | 0.00 | 29 | 1002.8 |
| 20260506013101 | 71 | 39 | 0.0 | 0.0 | 0.00 | 0.00 | 0.00 | 28 | 1002.8 |
| 20260506012559 | 72 | 20 | 0.0 | 0.0 | 0.00 | 0.00 | 0.00 | 25 | 1002.7 |
| 20260506012058 | 72 | 10 | 0.0 | 0.0 | 0.00 | 0.00 | 0.00 | 25 | 1002.7 |
| 20260506011600 | 73 | 271 | 0.0 | 0.0 | 0.00 | 0.00 | 0.00 | 25 | 1002.7 |
| 20260506011059 | 73 | 43 | 0.0 | 0.0 | 0.00 | 0.00 | 0.00 | 26 | 1002.7 |
| 20260506010557 | 73 | 34 | 0.0 | 0.0 | 0.00 | 0.00 | 0.00 | 27 | 1002.7 |
| 20260506010100 | 73 | 303 | 0.0 | 0.0 | 0.00 | 0.00 | 0.00 | 25 | 1002.7 |
| 20260506005557 | 73 | 27 | 0.0 | 0.0 | 0.00 | 0.00 | 0.00 | 27 | 1002.7 |
| 20260506005056 | 73 | 321 | 0.0 | 0.0 | 0.00 | 0.00 | 0.00 | 27 | 1002.6 |
| 20260506004627 | 73 | 281 | 0.0 | 0.0 | 0.00 | 0.00 | 0.00 | 28 | 1002.6 |
| 20260506004056 | 73 | 44 | 0.0 | 0.0 | 0.00 | 0.00 | 0.00 | 27 | 1002.5 |
| 20260506003556 | 73 | 347 | 0.0 | 0.0 | 0.00 | 0.00 | 0.00 | 27 | 1002.5 |
| 20260506003057 | 73 | 43 | 0.0 | 0.0 | 0.00 | 0.00 | 0.00 | 26 | 1002.5 |
| 20260506002556 | 72 | 355 | 0.0 | 0.0 | 0.00 | 0.00 | 0.00 | 26 | 1002.6 |
| 20260506002059 | 72 | 38 | 0.0 | 0.0 | 0.00 | 0.00 | 0.00 | 26 | 1002.6 |
| 20260506001559 | 73 | 309 | 0.0 | 0.0 | 0.00 | 0.00 | 0.00 | 26 | 1002.5 |
| 20260506001055 | 74 | 32 | 0.0 | 0.0 | 0.00 | 0.00 | 0.00 | 24 | 1002.5 |
| 20260506000555 | 74 | 17 | 0.0 | 0.0 | 0.00 | 0.00 | 0.00 | 25 | 1002.5 |
| 20260506000055 | 74 | 61 | 0.0 | 0.0 | 0.00 | 0.00 | 0.00 | 25 | 1002.4 |
| 20260505235554 | 75 | 47 | 0.0 | 0.0 | 0.00 | 0.00 | 0.00 | 26 | 1002.4 |
| 20260505235055 | 75 | 325 | 0.0 | 0.0 | 0.00 | 0.00 | 0.00 | 26 | 1002.3 |
| 20260505234613 | 75 | 347 | 0.0 | 0.0 | 0.00 | 0.00 | 0.00 | 27 | 1002.3 |
| 20260505234053 | 74 | 16 | 0.0 | 0.0 | 0.00 | 0.00 | 0.00 | 27 | 1002.3 |
| 20260505233553 | 74 | 19 | 0.0 | 0.0 | 0.00 | 0.00 | 0.00 | 26 | 1002.3 |
| 20260505233054 | 75 | 304 | 0.0 | 0.0 | 0.00 | 0.00 | 0.00 | 25 | 1002.4 |
| 20260505232553 | 75 | 27 | 0.0 | 0.0 | 0.00 | 0.00 | 0.00 | 26 | 1002.3 |
| 20260505232053 | 75 | 63 | 0.0 | 0.0 | 0.00 | 0.00 | 0.00 | 26 | 1002.2 |
| 20260505231554 | 75 | 330 | 0.0 | 0.0 | 0.00 | 0.00 | 0.00 | 25 | 1002.3 |
| 20260505231052 | 74 | 332 | 0.0 | 0.0 | 0.00 | 0.00 | 0.00 | 26 | 1002.3 |
| 20260505230552 | 74 | 65 | 0.0 | 0.0 | 0.00 | 0.00 | 0.00 | 25 | 1002.3 |
| 20260505230053 | 74 | 34 | 0.0 | 0.0 | 0.00 | 0.00 | 0.00 | 25 | 1002.5 |
| 20260505225552 | 75 | 45 | 0.0 | 0.0 | 0.00 | 0.00 | 0.00 | 25 | 1002.5 |
| 20260505225052 | 75 | 47 | 0.0 | 0.0 | 0.00 | 0.00 | 0.00 | 26 | 1002.5 |
| 20260505224552 | 75 | 301 | 0.0 | 0.0 | 0.00 | 0.00 | 0.00 | 23 | 1002.5 |
| 20260505224050 | 75 | 345 | 0.0 | 0.0 | 0.00 | 0.00 | 0.00 | 25 | 1002.5 |
| 20260505223549 | 75 | 291 | 0.0 | 0.0 | 0.00 | 0.00 | 0.00 | 26 | 1002.6 |
| 20260505223100 | 74 | 29 | 0.0 | 0.0 | 0.00 | 0.00 | 0.00 | 25 | 1002.5 |
| 20260505222548 | 74 | 22 | 0.0 | 0.0 | 0.00 | 0.00 | 0.00 | 25 | 1002.5 |
| 20260505222048 | 73 | 36 | 0.0 | 0.0 | 0.00 | 0.00 | 0.00 | 26 | 1002.5 |
| 20260505221559 | 73 | 346 | 0.0 | 0.0 | 0.00 | 0.00 | 0.00 | 27 | 1002.6 |
| 20260505221048 | 72 | 94 | 0.0 | 0.0 | 0.00 | 0.00 | 0.00 | 28 | 1002.5 |
| 20260505220549 | 71 | 48 | 0.0 | 0.0 | 0.00 | 0.00 | 0.00 | 28 | 1002.6 |
| 20260505220100 | 71 | 360 | 0.0 | 0.0 | 0.00 | 0.00 | 0.00 | 27 | 1002.7 |
| 20260505215549 | 73 | 61 | 0.0 | 0.0 | 0.00 | 0.00 | 0.00 | 25 | 1002.7 |
| 20260505215045 | 73 | 78 | 0.0 | 0.0 | 0.00 | 0.00 | 0.00 | 28 | 1002.7 |
| 20260505214602 | 71 | 67 | 0.0 | 0.0 | 0.00 | 0.00 | 0.00 | 28 | 1002.8 |
| 20260505214045 | 71 | 344 | 0.0 | 0.0 | 0.00 | 0.00 | 0.00 | 28 | 1002.8 |
| 20260505213546 | 71 | 24 | 0.0 | 0.0 | 0.00 | 0.00 | 0.00 | 28 | 1002.9 |
| 20260505213047 | 72 | 11 | 0.0 | 0.0 | 0.00 | 0.00 | 0.00 | 27 | 1002.8 |
| 20260505212545 | 72 | 327 | 0.0 | 0.0 | 0.00 | 0.00 | 0.00 | 26 | 1002.8 |
| 20260505212044 | 72 | 60 | 0.0 | 0.0 | 0.00 | 0.00 | 0.00 | 30 | 1003.0 |
| 20260505211544 | 71 | 311 | 0.0 | 0.0 | 0.00 | 0.00 | 0.00 | 28 | 1003.0 |
| 20260505211044 | 71 | 336 | 0.0 | 0.0 | 0.00 | 0.00 | 0.00 | 29 | 1003.1 |
| 20260505210545 | 70 | 30 | 0.0 | 0.0 | 0.00 | 0.00 | 0.00 | 29 | 1003.0 |
| 20260505210044 | 70 | 25 | 0.0 | 0.0 | 0.00 | 0.00 | 0.00 | 29 | 1002.9 |
| 20260505205546 | 71 | 323 | 0.0 | 0.0 | 0.00 | 0.00 | 0.00 | 28 | 1003.0 |
| 20260505205044 | 71 | 46 | 0.0 | 0.0 | 0.00 | 0.00 | 0.00 | 28 | 1003.0 |
| 20260505204543 | 71 | 40 | 0.0 | 0.0 | 0.00 | 0.00 | 0.00 | 27 | 1003.1 |
| 20260505204042 | 72 | 33 | 0.0 | 0.0 | 0.00 | 0.00 | 0.00 | 26 | 1003.1 |
| 20260505203543 | 73 | 53 | 0.0 | 0.0 | 0.00 | 0.00 | 0.00 | 26 | 1002.9 |
| 20260505203041 | 72 | 15 | 0.0 | 0.0 | 0.00 | 0.00 | 0.00 | 27 | 1003.0 |
| 20260505202544 | 71 | 346 | 0.0 | 0.0 | 0.00 | 0.00 | 0.00 | 28 | 1002.9 |
| 20260505202039 | 71 | 299 | 0.0 | 0.0 | 0.00 | 0.00 | 0.00 | 28 | 1003.1 |
| 20260505201539 | 69 | 304 | 0.0 | 0.0 | 0.00 | 0.00 | 0.00 | 28 | 1003.3 |
| 20260505201038 | 70 | 350 | 0.0 | 0.0 | 0.00 | 0.00 | 0.00 | 29 | 1003.2 |
| 20260505200538 | 70 | 35 | 0.0 | 6.0 | 0.00 | 0.00 | 0.00 | 28 | 1003.4 |
| 20260505200042 | 71 | 48 | 0.0 | 5.0 | 0.00 | 0.00 | 0.00 | 27 | 1003.3 |
| 20260505195537 | 71 | 11 | 0.0 | 0.0 | 0.00 | 0.00 | 0.00 | 30 | 1003.4 |
| 20260505195037 | 69 | 61 | 0.0 | 0.0 | 0.00 | 0.00 | 0.00 | 30 | 1003.4 |
| 20260505194538 | 69 | 66 | 0.0 | 0.0 | 0.00 | 0.00 | 0.00 | 31 | 1003.4 |
| 20260505194037 | 69 | 57 | 0.0 | 0.0 | 0.00 | 0.00 | 0.00 | 30 | 1003.4 |
| 20260505193537 | 70 | 41 | 0.0 | 7.0 | 0.00 | 0.00 | 0.00 | 30 | 1003.4 |
| 20260505193037 | 71 | 26 | 0.0 | 7.0 | 0.00 | 0.00 | 0.00 | 28 | 1003.4 |
| 20260505192535 | 70 | 24 | 0.0 | 1.0 | 0.00 | 0.00 | 0.00 | 29 | 1003.5 |
| 20260505192034 | 69 | 72 | 0.0 | 1.0 | 0.00 | 0.00 | 0.00 | 30 | 1003.4 |
| 20260505191534 | 69 | 71 | 0.0 | 7.0 | 0.00 | 0.00 | 0.00 | 32 | 1003.4 |
| 20260505191034 | 68 | 58 | 0.0 | 7.0 | 0.00 | 0.00 | 0.00 | 33 | 1003.4 |
| 20260505190532 | 69 | 71 | 0.0 | 0.0 | 0.00 | 0.00 | 0.00 | 30 | 1003.4 |
| 20260505190034 | 68 | 31 | 0.0 | 0.0 | 0.00 | 0.00 | 0.00 | 34 | 1003.4 |
| 20260505185532 | 68 | 31 | 0.0 | 0.0 | 0.00 | 0.00 | 0.00 | 30 | 1003.4 |
| 20260505185031 | 68 | 22 | 0.0 | 6.0 | 0.00 | 0.00 | 0.00 | 32 | 1003.4 |
| 20260505184531 | 68 | 24 | 0.0 | 6.0 | 0.00 | 0.00 | 0.00 | 33 | 1003.3 |
| 20260505184031 | 67 | 323 | 0.0 | 7.0 | 0.00 | 0.00 | 0.00 | 32 | 1003.3 |
| 20260505183531 | 67 | 315 | 0.0 | 1.0 | 0.00 | 0.00 | 0.00 | 33 | 1003.3 |
| 20260505183042 | 67 | 13 | 0.0 | 1.0 | 0.00 | 0.00 | 0.00 | 33 | 1003.4 |
| 20260505182530 | 67 | 319 | 0.0 | 0.0 | 0.00 | 0.00 | 0.00 | 33 | 1003.2 |
| 20260505182030 | 68 | 31 | 0.0 | 0.0 | 0.00 | 0.00 | 0.00 | 32 | 1003.2 |
| 20260505181528 | 68 | 72 | 0.0 | 2.0 | 0.00 | 0.00 | 0.00 | 31 | 1003.1 |
| 20260505181028 | 68 | 25 | 0.0 | 6.0 | 0.00 | 0.00 | 0.00 | 33 | 1003.0 |
| 20260505180528 | 68 | 317 | 0.0 | 6.0 | 0.00 | 0.00 | 0.00 | 32 | 1003.1 |
| 20260505180027 | 68 | 51 | 0.0 | 6.0 | 0.00 | 0.00 | 0.00 | 31 | 1002.9 |
| 20260505175527 | 68 | 331 | 0.0 | 0.0 | 0.00 | 0.00 | 0.00 | 31 | 1003.0 |
| 20260505175028 | 67 | 43 | 0.0 | 0.0 | 0.00 | 0.00 | 0.00 | 31 | 1002.9 |
| 20260505174526 | 68 | 69 | 0.0 | 1.0 | 0.00 | 0.00 | 0.00 | 32 | 1002.9 |
| 20260505174028 | 68 | 53 | 0.0 | 4.0 | 0.00 | 0.00 | 0.00 | 35 | 1002.9 |
| 20260505173528 | 67 | 37 | 0.0 | 10.0 | 0.00 | 0.00 | 0.00 | 34 | 1003.0 |
| 20260505173027 | 67 | 318 | 0.0 | 10.0 | 0.00 | 0.00 | 0.00 | 33 | 1002.9 |
| 20260505172525 | 67 | 43 | 0.0 | 0.0 | 0.00 | 0.00 | 0.00 | 34 | 1002.9 |
| 20260505172023 | 66 | 22 | 0.0 | 0.0 | 0.00 | 0.00 | 0.00 | 35 | 1003.0 |
| 20260505171523 | 66 | 342 | 0.0 | 0.0 | 0.00 | 0.00 | 0.00 | 35 | 1003.0 |
| 20260505171025 | 66 | 11 | 0.0 | 0.0 | 0.00 | 0.00 | 0.00 | 34 | 1003.0 |
| 20260505170522 | 67 | 319 | 0.0 | 0.0 | 0.00 | 0.00 | 0.00 | 34 | 1003.0 |
| 20260505170022 | 66 | 340 | 0.0 | 15.0 | 0.00 | 0.00 | 0.00 | 35 | 1003.0 |
| 20260505165521 | 66 | 327 | 0.0 | 15.0 | 0.00 | 0.00 | 0.00 | 35 | 1003.1 |
| 20260505165021 | 66 | 47 | 4.0 | 15.0 | 0.00 | 0.00 | 0.00 | 34 | 1003.0 |
| 20260505164521 | 67 | 34 | 3.0 | 11.0 | 0.00 | 0.00 | 0.00 | 36 | 1003.0 |
| 20260505164020 | 66 | 46 | 1.0 | 10.0 | 0.00 | 0.00 | 0.00 | 36 | 1002.8 |
| 20260505163519 | 66 | 22 | 0.0 | 7.0 | 0.00 | 0.00 | 0.00 | 37 | 1002.9 |
| 20260505163018 | 66 | 344 | 0.0 | 1.0 | 0.00 | 0.00 | 0.00 | 36 | 1002.9 |
| 20260505162517 | 65 | 38 | 0.0 | 12.0 | 0.00 | 0.00 | 0.00 | 35 | 1002.8 |
| 20260505162017 | 65 | 339 | 0.0 | 12.0 | 0.00 | 0.00 | 0.00 | 36 | 1002.8 |
| 20260505161520 | 65 | 71 | 0.0 | 5.0 | 0.00 | 0.00 | 0.00 | 37 | 1002.8 |
| 20260505161017 | 65 | 53 | 0.0 | 11.0 | 0.00 | 0.00 | 0.00 | 36 | 1002.8 |
| 20260505160516 | 65 | 350 | 0.0 | 11.0 | 0.00 | 0.00 | 0.00 | 38 | 1002.8 |
| 20260505153008 | 61 | 217 | 2.0 | 5.0 | 0.00 | 0.00 | 0.00 | 45 | 1002.8 |
| 20260505152508 | 61 | 214 | 2.0 | 4.0 | 0.00 | 0.00 | 0.00 | 46 | 1002.8 |
| 20260505152007 | 60 | 176 | 0.0 | 5.0 | 0.00 | 0.00 | 0.00 | 44 | 1002.9 |
| 20260505151611 | 60 | 142 | 2.0 | 5.0 | 0.00 | 0.00 | 0.00 | 46 | 1002.8 |
| 20260505151100 | 60 | 204 | 1.0 | 4.0 | 0.00 | 0.00 | 0.00 | 45 | 1002.8 |
| 20260505150602 | 59 | 119 | 0.0 | 5.0 | 0.00 | 0.00 | 0.00 | 47 | 1002.7 |
| 20260505140555 | 54 | 227 | 0.0 | 2.0 | 0.00 | 0.00 | 0.00 | 49 | 1002.4 |
| 20260505124556 | 51 | 184 | 0.0 | 1.0 | 0.00 | 0.00 | 0.00 | 52 | 1001.9 |
| 20260505124047 | 52 | 221 | 0.0 | 1.0 | 0.00 | 0.00 | 0.00 | 52 | 1001.7 |
| 20260505123546 | 52 | 214 | 0.0 | 5.0 | 0.00 | 0.00 | 0.00 | 51 | 1001.7 |
| 20260505123045 | 52 | 217 | 0.0 | 5.0 | 0.00 | 0.00 | 0.00 | 51 | 1001.6 |
| 20260505122544 | 52 | 232 | 0.0 | 5.0 | 0.00 | 0.00 | 0.00 | 51 | 1001.6 |
| 20260505122044 | 53 | 248 | 0.0 | 5.0 | 0.00 | 0.00 | 0.00 | 49 | 1001.6 |
| 20260505121544 | 53 | 228 | 1.0 | 4.0 | 0.00 | 0.00 | 0.00 | 45 | 1001.4 |
| 20260505121042 | 54 | 351 | 0.0 | 5.0 | 0.00 | 0.00 | 0.00 | 45 | 1001.4 |
| 20260505120542 | 53 | 325 | 0.0 | 7.0 | 0.00 | 0.00 | 0.00 | 45 | 1001.3 |
| 20260505120049 | 51 | 25 | 2.0 | 6.0 | 0.00 | 0.00 | 0.00 | 48 | 1001.3 |
| 20260505115540 | 51 | 296 | 0.0 | 2.0 | 0.00 | 0.00 | 0.00 | 49 | 1001.2 |
| 20260505115039 | 52 | 306 | 0.0 | 0.0 | 0.00 | 0.00 | 0.00 | 47 | 1001.4 |
| 20260505114542 | 53 | 307 | 0.0 | 1.0 | 0.00 | 0.00 | 0.00 | 45 | 1001.4 |
| 20260505114037 | 54 | 246 | 0.0 | 1.0 | 0.00 | 0.00 | 0.00 | 43 | 1001.4 |
| 20260505113540 | 54 | 245 | 0.0 | 1.0 | 0.00 | 0.00 | 0.00 | 42 | 1001.4 |
| 20260505113035 | 55 | 245 | 0.0 | 1.0 | 0.00 | 0.00 | 0.00 | 41 | 1001.3 |
| 20260505112538 | 55 | 245 | 0.0 | 2.0 | 0.00 | 0.00 | 0.00 | 40 | 1001.2 |
| 20260505112034 | 56 | 245 | 0.0 | 2.0 | 0.00 | 0.00 | 0.00 | 39 | 1001.2 |
| 20260505111533 | 56 | 262 | 0.0 | 8.0 | 0.00 | 0.00 | 0.00 | 39 | 1001.2 |
| 20260505111034 | 55 | 10 | 2.0 | 8.0 | 0.00 | 0.00 | 0.00 | 40 | 1001.2 |
| 20260505110532 | 55 | 234 | 0.0 | 4.0 | 0.00 | 0.00 | 0.00 | 42 | 1000.9 |
| 20260505102031 | 58 | 275 | 0.0 | 6.0 | 0.00 | 0.00 | 0.00 | 36 | 1000.8 |
| 20260505101528 | 58 | 219 | 0.0 | 6.0 | 0.00 | 0.00 | 0.00 | 37 | 1000.7 |
| 20260505101027 | 58 | 329 | 2.0 | 6.0 | 0.00 | 0.00 | 0.00 | 37 | 1000.7 |
| 20260505100527 | 58 | 302 | 0.0 | 5.0 | 0.00 | 0.00 | 0.00 | 40 | 1000.6 |
| 20260505100028 | 57 | 293 | 0.0 | 4.0 | 0.00 | 0.00 | 0.00 | 40 | 1000.6 |
| 20260505095526 | 56 | 290 | 0.0 | 5.0 | 0.00 | 0.00 | 0.00 | 41 | 1000.5 |
| 20260505095028 | 56 | 323 | 0.0 | 5.0 | 0.00 | 0.00 | 0.00 | 42 | 1000.5 |
| 20260505094529 | 57 | 16 | 0.0 | 1.0 | 0.00 | 0.00 | 0.00 | 42 | 1000.5 |
| 20260505094023 | 57 | 16 | 0.0 | 4.0 | 0.00 | 0.00 | 0.00 | 40 | 1000.6 |
| 20260505093526 | 58 | 252 | 0.0 | 2.0 | 0.00 | 0.00 | 0.00 | 40 | 1000.6 |
| 20260505093022 | 58 | 261 | 0.0 | 2.0 | 0.00 | 0.00 | 0.00 | 40 | 1000.7 |
| 20260505092521 | 58 | 319 | 0.0 | 2.0 | 0.00 | 0.00 | 0.00 | 40 | 1000.8 |
| 20260505092019 | 59 | 268 | 0.0 | 6.0 | 0.00 | 0.00 | 0.00 | 39 | 1000.6 |
| 20260505091518 | 59 | 346 | 1.0 | 8.0 | 0.00 | 0.00 | 0.00 | 38 | 1000.6 |
| 20260505091017 | 60 | 346 | 1.0 | 8.0 | 0.00 | 0.00 | 0.00 | 38 | 1000.7 |
| 20260505090517 | 60 | 320 | 1.0 | 11.0 | 0.00 | 0.00 | 0.00 | 38 | 1000.7 |
| 20260505090017 | 60 | 346 | 0.0 | 8.0 | 0.00 | 0.00 | 0.00 | 38 | 1000.6 |
| 20260505085517 | 60 | 301 | 0.0 | 9.0 | 0.00 | 0.00 | 0.00 | 37 | 1000.6 |
| 20260505085018 | 60 | 24 | 1.0 | 9.0 | 0.00 | 0.00 | 0.00 | 37 | 1000.7 |
| 20260505084521 | 60 | 348 | 0.0 | 1.0 | 0.00 | 0.00 | 0.00 | 37 | 1000.7 |
| 20260505084012 | 61 | 333 | 0.0 | 14.0 | 0.00 | 0.00 | 0.00 | 37 | 1000.6 |
| 20260505083512 | 61 | 341 | 0.0 | 14.0 | 0.00 | 0.00 | 0.00 | 36 | 1000.7 |
| 20260505083011 | 61 | 15 | 0.0 | 6.0 | 0.00 | 0.00 | 0.00 | 36 | 1000.7 |
| 20260505082511 | 61 | 326 | 0.0 | 5.0 | 0.00 | 0.00 | 0.00 | 36 | 1000.7 |
| 20260505082011 | 61 | 302 | 0.0 | 5.0 | 0.00 | 0.00 | 0.00 | 36 | 1000.7 |
| 20260505081510 | 61 | 31 | 0.0 | 7.0 | 0.00 | 0.00 | 0.00 | 37 | 1000.8 |
| 20260505081011 | 61 | 329 | 2.0 | 6.0 | 0.00 | 0.00 | 0.00 | 37 | 1000.8 |
| 20260505080510 | 61 | 320 | 0.0 | 4.0 | 0.00 | 0.00 | 0.00 | 37 | 1000.8 |
| 20260505080009 | 61 | 333 | 0.0 | 4.0 | 0.00 | 0.00 | 0.00 | 37 | 1000.9 |
| 20260505075508 | 61 | 324 | 0.0 | 6.0 | 0.00 | 0.00 | 0.00 | 37 | 1000.9 |
| 20260505075010 | 61 | 350 | 0.0 | 7.0 | 0.00 | 0.00 | 0.00 | 37 | 1001.0 |
| 20260505074508 | 61 | 342 | 0.0 | 7.0 | 0.00 | 0.00 | 0.00 | 37 | 1001.0 |
| 20260505074008 | 62 | 316 | 0.0 | 12.0 | 0.00 | 0.00 | 0.00 | 37 | 1000.9 |
| 20260505073508 | 62 | 264 | 6.0 | 14.0 | 0.00 | 0.00 | 0.00 | 36 | 1000.8 |
| 20260505073008 | 62 | 14 | 5.0 | 14.0 | 0.00 | 0.00 | 0.00 | 36 | 1000.7 |
| 20260505072508 | 62 | 305 | 5.0 | 12.0 | 0.00 | 0.00 | 0.00 | 36 | 1000.7 |
| 20260505072007 | 62 | 35 | 1.0 | 8.0 | 0.00 | 0.00 | 0.00 | 36 | 1000.7 |
| 20260505071507 | 63 | 331 | 0.0 | 7.0 | 0.00 | 0.00 | 0.00 | 36 | 1000.7 |
| 20260505071010 | 63 | 24 | 0.0 | 7.0 | 0.00 | 0.00 | 0.00 | 35 | 1000.6 |
| 20260505070507 | 63 | 306 | 0.0 | 9.0 | 0.00 | 0.00 | 0.00 | 35 | 1000.6 |
| 20260505070007 | 63 | 342 | 1.0 | 11.0 | 0.00 | 0.00 | 0.00 | 35 | 1000.6 |